Weather History for KAFN - December, 2012

Change the Weather History Date:

Wednesday, December 19, 2012

  Actual Average Record
Temperature  
Mean Temperature 36 °F -  
Max Temperature 37 °F 32 °F 43 °F (1997)
Min Temperature 35 °F 17 °F 6 °F (2007)
Degree Days  
Heating Degree Days 29    
Moisture  
Dew Point 29 °F    
Average Humidity 74    
Maximum Humidity 89    
Minimum Humidity 68    
Precipitation  
Precipitation 0.00 in - - ()
Sea Level Pressure  
Sea Level Pressure 29.74 in    
Wind  
Wind Speed 6 mph (NW)    
Max Wind Speed 10 mph    
Max Gust Speed 22 mph    
Visibility 10 miles    
Events      
Averages and records for this station are not official NWS values.
T = Trace of Precipitation, MM = Missing Value Source: NWS Daily Summary

Daily Weather History Graph

Daily Weather History Graph

Search for Another Location

Airport or City:

Trip Planner

Search our weather history database for the weather conditions in past years. The results will help you decide how hot, cold, wet, or windy it might be!

Date:

Astronomy

Dec. 19, 2012 Rise Set
Actual Time 7:14 AM EST 4:16 PM EST
Civil Twilight 6:42 AM EST 4:48 PM EST
Nautical Twilight 6:06 AM EST 5:24 PM EST
Astronomical Twilight 5:32 AM EST 5:58 PM EST
Moon 11:12 AM EST (12/19) 11:51 PM EST (12/19)
Length of Visible Light 10h 06m
Length of Day
9h 01m
Waxing Crescent, 45% of the Moon is Illuminated
Dec 19
Waxing Crescent
Dec 20
First Quarter
Dec 28
Full
Jan 4
Last Quarter
Jan 11
New

Hourly Weather History & Observations

Time (EST) Temp. Windchill Dew Point Humidity Pressure Visibility Wind Dir Wind Speed Gust Speed Precip Events Conditions
12:52 AM 37.9 °F 34.4 °F 35.1 °F 89% 29.48 in 10.0 mi Variable 4.6 mph - 0.00 in   Overcast
1:24 AM 37.4 °F 33.8 °F 33.8 °F 87% 29.45 in 10.0 mi Variable 4.6 mph - N/A   Overcast
1:44 AM 37.4 °F 32.1 °F 33.8 °F 87% 29.45 in 10.0 mi WNW 6.9 mph - N/A   Overcast
1:52 AM 37.9 °F 33.5 °F 33.1 °F 83% 29.49 in 10.0 mi Variable 5.8 mph - N/A   Overcast
2:52 AM 37.0 °F 31.0 °F 32.0 °F 82% 29.50 in 10.0 mi WNW 8.1 mph - N/A   Overcast
3:52 AM 36.0 °F 29.0 °F 30.9 °F 82% 29.52 in 10.0 mi WNW 9.2 mph 19.6 mph N/A   Overcast
4:27 AM 35.6 °F 29.2 °F 30.2 °F 81% 29.49 in 10.0 mi WNW 8.1 mph 21.9 mph N/A   Overcast
5:04 AM 35.6 °F 28.6 °F 30.2 °F 81% 29.50 in 10.0 mi WNW 9.2 mph 21.9 mph N/A   Overcast
5:52 AM 35.1 °F 29.3 °F 28.9 °F 78% 29.56 in 10.0 mi Variable 6.9 mph - N/A   Mostly Cloudy
6:03 AM 35.6 °F 30.7 °F 28.4 °F 75% 29.52 in 10.0 mi WNW 5.8 mph 19.6 mph N/A   Overcast
6:36 AM 35.6 °F 30.7 °F 28.4 °F 75% 29.54 in 10.0 mi WNW 5.8 mph - N/A   Overcast
6:49 AM 35.6 °F 29.2 °F 28.4 °F 75% 29.54 in 10.0 mi WNW 8.1 mph - N/A   Overcast
6:52 AM 36.0 °F 29.0 °F 28.0 °F 73% 29.59 in 10.0 mi NW 9.2 mph - N/A   Overcast
7:52 AM 36.0 °F 29.6 °F 28.0 °F 73% 29.61 in 10.0 mi WNW 8.1 mph - 0.00 in   Overcast
8:08 AM 35.6 °F 29.9 °F 28.4 °F 75% 29.57 in 10.0 mi Variable 6.9 mph - N/A   Overcast
8:52 AM 36.0 °F 31.1 °F 28.0 °F 73% 29.63 in 10.0 mi Variable 5.8 mph - N/A   Overcast
9:16 AM 37.4 °F 30.8 °F 28.4 °F 70% 29.60 in 10.0 mi NNW 9.2 mph 20.7 mph N/A   Overcast
9:52 AM 37.0 °F 29.8 °F 28.9 °F 73% 29.65 in 10.0 mi NW 10.4 mph 17.3 mph N/A   Mostly Cloudy
10:52 AM 37.0 °F 30.4 °F 28.0 °F 70% 29.66 in 10.0 mi NNW 9.2 mph 20.7 mph N/A   Overcast
11:52 AM 37.9 °F 33.5 °F 28.9 °F 70% 29.69 in 10.0 mi Variable 5.8 mph - N/A   Overcast
12:52 PM 37.9 °F 32.1 °F 28.0 °F 68% 29.73 in 10.0 mi NNW 8.1 mph - N/A   Overcast
1:52 PM 37.0 °F 30.4 °F 28.9 °F 73% 29.75 in 10.0 mi NNW 9.2 mph 18.4 mph N/A   Overcast
2:52 PM 37.0 °F 30.4 °F 28.0 °F 70% 29.79 in 10.0 mi NW 9.2 mph 16.1 mph N/A   Overcast
3:52 PM 37.0 °F 33.3 °F 28.0 °F 70% 29.83 in 10.0 mi NW 4.6 mph - N/A   Overcast
4:52 PM 37.0 °F 31.6 °F 28.0 °F 70% 29.86 in 10.0 mi Variable 6.9 mph - N/A   Overcast
5:30 PM 37.4 °F 34.9 °F 28.4 °F 70% 29.84 in 10.0 mi Variable 3.5 mph - N/A   Overcast
5:52 PM 36.0 °F 32.1 °F 28.0 °F 73% 29.90 in 10.0 mi Variable 4.6 mph 17.3 mph N/A   Overcast
6:50 PM 35.6 °F 30.7 °F 28.4 °F 75% 29.90 in 10.0 mi NNW 5.8 mph - N/A   Overcast
6:52 PM 36.0 °F 32.1 °F 28.0 °F 73% 29.94 in 10.0 mi Variable 4.6 mph - N/A   Overcast
7:17 PM 35.6 °F 31.7 °F 28.4 °F 75% 29.91 in 10.0 mi Variable 4.6 mph - N/A   Overcast
7:52 PM 36.0 °F 30.3 °F 28.0 °F 73% 29.99 in 10.0 mi NNW 6.9 mph - N/A   Overcast
8:52 PM 35.1 °F 31.0 °F 27.0 °F 72% 30.01 in 10.0 mi Variable 4.6 mph - N/A   Scattered Clouds
9:06 PM 35.6 °F 32.8 °F 26.6 °F 70% 29.97 in 10.0 mi Variable 3.5 mph - N/A   Mostly Cloudy
9:41 PM 35.6 °F 30.7 °F 26.6 °F 70% 29.97 in 10.0 mi Variable 5.8 mph - N/A   Overcast
9:52 PM 35.1 °F 29.3 °F 27.0 °F 72% 30.02 in 10.0 mi NNW 6.9 mph - N/A   Overcast
10:42 PM 35.6 °F 29.2 °F 26.6 °F 70% 30.00 in 10.0 mi NNW 8.1 mph - N/A   Overcast
10:52 PM 35.1 °F 31.0 °F 27.0 °F 72% 30.06 in 10.0 mi Variable 4.6 mph - N/A   Overcast
11:11 PM 35.6 °F - 26.6 °F 70% 30.01 in 10.0 mi Calm Calm - N/A   Overcast
11:34 PM 35.6 °F - 26.6 °F 70% 30.02 in 10.0 mi Calm Calm - N/A   Overcast
11:52 PM 35.1 °F - 27.0 °F 72% 30.07 in 10.0 mi Calm Calm - N/A   Overcast